TimeMDT,TemperatureF,Dew PointF,Humidity,Sea Level PressureIn,VisibilityMPH,Wind Direction,Wind SpeedMPH,Gust SpeedMPH,PrecipitationIn,Events,Conditions,WindDirDegrees,DateUTC
12:15 AM,57.2,51.8,82,30.34,10.0,West,4.6,-,N/A,,Clear,280,2013-07-17 06:15:00
12:36 AM,57.2,51.8,82,30.34,10.0,NW,8.1,-,N/A,,Clear,320,2013-07-17 06:36:00
12:57 AM,57.2,51.8,82,30.33,10.0,NW,5.8,-,N/A,,Clear,310,2013-07-17 06:57:00
1:15 AM,57.2,51.8,82,30.33,10.0,West,3.5,-,N/A,,Clear,270,2013-07-17 07:15:00
1:35 AM,55.4,51.8,88,30.34,10.0,WNW,5.8,-,N/A,,Clear,290,2013-07-17 07:35:00
1:55 AM,53.6,51.8,94,30.34,10.0,WNW,4.6,-,N/A,,Clear,300,2013-07-17 07:55:00
2:15 AM,55.4,51.8,88,30.35,10.0,WNW,6.9,-,N/A,,Clear,300,2013-07-17 08:15:00
2:35 AM,53.6,51.8,94,30.35,10.0,WNW,4.6,-,N/A,,Clear,300,2013-07-17 08:35:00
2:55 AM,53.6,51.8,94,30.35,10.0,Calm,Calm,-,N/A,,Clear,0,2013-07-17 08:55:00
3:17 AM,53.6,51.8,94,30.35,10.0,West,4.6,-,N/A,,Clear,270,2013-07-17 09:17:00
3:35 AM,53.6,51.8,94,30.35,10.0,WNW,5.8,-,N/A,,Clear,290,2013-07-17 09:35:00
3:55 AM,53.6,51.8,94,30.35,10.0,WNW,3.5,-,N/A,,Clear,290,2013-07-17 09:55:00
4:15 AM,53.6,51.8,94,30.35,10.0,West,5.8,-,N/A,,Clear,270,2013-07-17 10:15:00
4:35 AM,53.6,51.8,94,30.35,10.0,West,5.8,-,N/A,,Clear,280,2013-07-17 10:35:00
4:55 AM,53.6,51.8,94,30.35,10.0,NW,5.8,-,N/A,,Clear,310,2013-07-17 10:55:00
5:15 AM,53.6,51.8,94,30.35,10.0,WNW,3.5,-,N/A,,Clear,300,2013-07-17 11:15:00
5:35 AM,53.6,51.8,94,30.35,10.0,NW,4.6,-,N/A,,Clear,310,2013-07-17 11:35:00
5:55 AM,53.6,51.8,94,30.35,10.0,Calm,Calm,-,N/A,,Scattered Clouds,0,2013-07-17 11:55:00
6:15 AM,53.6,51.8,94,30.36,10.0,West,4.6,-,N/A,,Scattered Clouds,270,2013-07-17 12:15:00
6:35 AM,53.6,51.8,94,30.36,10.0,West,6.9,-,N/A,,Clear,260,2013-07-17 12:35:00
6:55 AM,53.6,51.8,94,30.36,10.0,West,5.8,-,N/A,,Clear,270,2013-07-17 12:55:00
7:15 AM,55.4,53.6,94,30.36,10.0,WNW,5.8,-,N/A,,Clear,300,2013-07-17 13:15:00
7:35 AM,59.0,51.8,77,30.37,10.0,NW,6.9,-,N/A,,Clear,310,2013-07-17 13:35:00
7:57 AM,62.6,51.8,68,30.38,10.0,NNW,4.6,-,N/A,,Clear,330,2013-07-17 13:57:00
8:16 AM,64.4,53.6,68,30.38,10.0,NNW,4.6,-,N/A,,Mostly Cloudy,340,2013-07-17 14:16:00
8:36 AM,64.4,51.8,64,30.38,10.0,Calm,Calm,-,N/A,,Overcast,0,2013-07-17 14:36:00
8:56 AM,66.2,51.8,60,30.38,10.0,WNW,5.8,-,N/A,,Overcast,300,2013-07-17 14:56:00
9:16 AM,68.0,50.0,52,30.39,10.0,WNW,5.8,-,N/A,,Overcast,300,2013-07-17 15:16:00
9:36 AM,69.8,48.2,46,30.39,10.0,WNW,5.8,-,N/A,,Overcast,290,2013-07-17 15:36:00
9:56 AM,69.8,48.2,46,30.39,10.0,West,4.6,-,N/A,,Overcast,280,2013-07-17 15:56:00
10:16 AM,69.8,50.0,49,30.39,10.0,North,8.1,-,N/A,,Overcast,350,2013-07-17 16:16:00
10:36 AM,71.6,48.2,43,30.39,10.0,North,6.9,-,N/A,,Overcast,360,2013-07-17 16:36:00
10:56 AM,71.6,46.4,41,30.38,10.0,NNW,3.5,-,N/A,,Overcast,330,2013-07-17 16:56:00
11:16 AM,73.4,46.4,38,30.39,10.0,NW,5.8,-,N/A,,Mostly Cloudy,310,2013-07-17 17:16:00
11:36 AM,73.4,46.4,38,30.39,10.0,WNW,4.6,-,N/A,,Scattered Clouds,290,2013-07-17 17:36:00
11:56 AM,75.2,46.4,36,30.39,10.0,WNW,8.1,-,N/A,,Clear,300,2013-07-17 17:56:00
12:16 PM,75.2,44.6,34,30.38,10.0,NW,6.9,-,N/A,,Clear,320,2013-07-17 18:16:00
12:36 PM,77.0,44.6,32,30.37,10.0,North,5.8,-,N/A,,Clear,350,2013-07-17 18:36:00
12:56 PM,78.8,44.6,30,30.37,10.0,West,9.2,-,N/A,,Clear,280,2013-07-17 18:56:00
1:16 PM,78.8,44.6,30,30.36,10.0,North,9.2,-,N/A,,Clear,350,2013-07-17 19:16:00
1:36 PM,80.6,42.8,26,30.37,10.0,West,12.7,17.3,N/A,,Clear,280,2013-07-17 19:36:00
1:56 PM,80.6,42.8,26,30.36,10.0,West,10.4,16.1,N/A,,Clear,280,2013-07-17 19:56:00
3:16 PM,82.4,44.6,26,30.34,10.0,NNW,10.4,16.1,N/A,,Clear,340,2013-07-17 21:16:00
3:36 PM,82.4,44.6,26,30.34,10.0,NNW,12.7,18.4,N/A,,Clear,340,2013-07-17 21:36:00
3:56 PM,82.4,42.8,25,30.33,10.0,NNW,11.5,-,N/A,,Clear,340,2013-07-17 21:56:00
4:16 PM,82.4,44.6,26,30.32,10.0,NW,12.7,18.4,N/A,,Clear,320,2013-07-17 22:16:00
4:39 PM,84.2,42.8,23,30.31,10.0,WNW,12.7,19.6,N/A,,Clear,300,2013-07-17 22:39:00
4:56 PM,84.2,42.8,23,30.30,10.0,NNW,11.5,16.1,N/A,,Clear,330,2013-07-17 22:56:00
5:16 PM,82.4,44.6,26,30.29,10.0,NNW,12.7,-,N/A,,Clear,330,2013-07-17 23:16:00
5:36 PM,84.2,42.8,23,30.29,10.0,WNW,10.4,-,N/A,,Clear,300,2013-07-17 23:36:00
5:56 PM,84.2,41.0,22,30.28,10.0,NW,10.4,-,N/A,,Clear,310,2013-07-17 23:56:00
6:36 PM,80.6,42.8,26,30.29,10.0,NW,6.9,-,N/A,,Clear,310,2013-07-18 00:36:00
6:56 PM,80.6,44.6,28,30.29,10.0,West,4.6,-,N/A,,Clear,270,2013-07-18 00:56:00
7:16 PM,78.8,44.6,30,30.29,10.0,WSW,6.9,-,N/A,Thunderstorm,Clear,240,2013-07-18 01:16:00
7:36 PM,73.4,44.6,36,30.30,10.0,SW,18.4,23.0,N/A,Thunderstorm,Scattered Clouds,230,2013-07-18 01:36:00
7:56 PM,73.4,44.6,36,30.30,10.0,SSW,11.5,-,N/A,Thunderstorm,Scattered Clouds,210,2013-07-18 01:56:00
8:16 PM,75.2,41.0,29,30.30,10.0,SW,9.2,-,N/A,Thunderstorm,Mostly Cloudy,230,2013-07-18 02:16:00
8:36 PM,69.8,44.6,40,30.33,10.0,South,13.8,29.9,N/A,Thunderstorm,Thunderstorm,190,2013-07-18 02:36:00
8:56 PM,69.8,44.6,40,30.34,10.0,SSW,9.2,-,N/A,,Scattered Clouds,200,2013-07-18 02:56:00
9:16 PM,69.8,44.6,40,30.35,10.0,SSW,6.9,-,N/A,Thunderstorm,Clear,210,2013-07-18 03:16:00
9:36 PM,66.2,46.4,49,30.37,10.0,SW,8.1,-,N/A,,Mostly Cloudy,220,2013-07-18 03:36:00
9:57 PM,66.2,48.2,52,30.41,10.0,West,12.7,-,N/A,,Overcast,280,2013-07-18 03:57:00
10:16 PM,66.2,48.2,52,30.42,10.0,Calm,Calm,-,N/A,,Overcast,0,2013-07-18 04:16:00
10:36 PM,66.2,48.2,52,30.43,10.0,NW,11.5,19.6,N/A,,Overcast,320,2013-07-18 04:36:00
10:56 PM,64.4,51.8,64,30.43,10.0,NNW,10.4,23.0,N/A,,Overcast,340,2013-07-18 04:56:00
11:16 PM,62.6,51.8,68,30.44,10.0,NNW,12.7,17.3,N/A,,Mostly Cloudy,340,2013-07-18 05:16:00
11:36 PM,62.6,51.8,68,30.43,10.0,North,9.2,-,N/A,,Mostly Cloudy,350,2013-07-18 05:36:00
11:56 PM,62.6,53.6,72,30.41,10.0,NE,5.8,-,N/A,,Overcast,50,2013-07-18 05:56:00